DW3371 Weather Reports


Display with metric or nautical units.
time (UTC)temp
F
wind
direction
speed
MPH
gust
MPH
rain 1hr
in
rain 24hr
in
rain mn
in
humidity
%
barometer
mb
20260508110332 64 154 5.0 12.0 0.00 0.00 0.00 43 1015.4
20260508103330 63 132 6.0 12.0 0.00 0.00 0.00 46 1015.5
20260508100331 62 55 5.0 13.0 0.00 0.00 0.00 48 1015.7
20260508093336 61 89 4.0 11.0 0.00 0.00 0.00 51 1015.8
20260508090330 61 84 6.0 11.0 0.00 0.00 0.00 53 1015.6
20260508083330 59 80 5.0 10.0 0.00 0.00 0.00 61 1015.7
20260508080330 58 98 5.0 10.0 0.00 0.00 0.00 68 1015.8
20260508073329 56 134 4.0 8.0 0.00 0.00 0.00 76 1015.7
20260508060336 47 96 0.0 2.0 0.00 0.00 0.00 87 1015.4
20260508053339 45 317 0.0 7.0 0.00 0.00 0.00 87 1015.5
20260508050335 45 186 0.0 0.0 0.00 0.00 0.00 87 1015.5
20260508043331 45 138 0.0 1.0 0.00 0.00 0.00 87 1015.0
20260508033335 44 139 0.0 0.0 0.00 0.00 0.00 87 1015.1
20260508030326 44 134 0.0 0.0 0.00 0.00 0.00 87 1015.1
20260508023325 44 0 1.0 4.0 0.00 0.00 0.00 87 1015.2
20260508020325 44 130 2.0 4.0 0.00 0.00 0.00 87 1015.0
20260508013329 44 130 2.0 6.0 0.00 0.00 0.00 86 1014.8
20260508010321 45 132 2.0 4.0 0.00 0.00 0.00 85 1014.9
20260508003319 46 141 2.0 4.0 0.00 0.00 0.00 85 1015.1
20260507233322 48 156 2.0 6.0 0.00 0.00 0.00 82 1015.3
20260507220310 50 167 4.0 9.0 0.00 0.00 0.00 78 1015.5
20260507210307 51 127 5.0 10.0 0.00 0.00 0.00 76 1015.2
20260507203307 51 133 3.0 8.0 0.00 0.00 0.00 75 1015.2
20260507200311 52 173 3.0 10.0 0.00 0.00 0.00 74 1014.7
20260507193305 54 128 6.0 11.0 0.00 0.00 0.00 71 1014.5
20260507190304 55 139 5.0 12.0 0.00 0.00 0.00 68 1014.4
20260507183312 57 147 6.0 12.0 0.00 0.00 0.00 66 1014.3
20260507180304 57 182 5.0 13.0 0.00 0.00 0.00 65 1013.9
20260507173305 59 153 4.0 9.0 0.00 0.00 0.00 60 1013.8
20260507170305 62 115 4.0 10.0 0.00 0.00 0.00 56 1013.8
20260507160305 58 138 2.0 4.0 0.00 0.00 0.00 63 1014.1
20260507150312 58 192 2.0 4.0 0.00 0.00 0.00 60 1014.4
20260507143303 58 0 2.0 4.0 0.00 0.00 0.00 60 1014.4
20260507140303 57 293 2.0 7.0 0.00 0.00 0.00 62 1014.4
20260507133307 58 258 3.0 7.0 0.00 0.00 0.00 62 1014.6
20260507130303 58 200 2.0 7.0 0.00 0.00 0.00 58 1014.6
20260507120307 60 74 5.0 13.0 0.00 0.00 0.00 57 1014.8